CST,Max TemperatureF,Mean TemperatureF,Min TemperatureF,Max Dew PointF,MeanDew PointF,Min DewpointF,Max Humidity, Mean Humidity, Min Humidity, Max Sea Level PressureIn, Mean Sea Level PressureIn, Min Sea Level PressureIn, Max VisibilityMiles, Mean VisibilityMiles, Min VisibilityMiles, Max Wind SpeedMPH, Mean Wind SpeedMPH, Max Gust SpeedMPH,PrecipitationIn, CloudCover, Events, WindDirDegrees
2011-11-1,71,56,40,34,30,28,79,51,23,30.26,30.19,30.15,10,10,10,14,6,18,0.00,0,,191
2011-11-2,70,58,45,43,37,30,65,50,35,30.23,30.13,29.98,10,10,10,18,8,24,0.00,0,,180
2011-11-3,60,52,43,52,43,36,93,68,43,30.00,29.87,29.78,10,7,2,25,12,31,0.48,8,Rain,241
2011-11-4,52,44,35,46,43,35,100,86,71,30.23,30.15,30.01,10,6,0,15,7,20,0.00,6,Fog,3
2011-11-5,63,48,33,44,38,30,100,72,43,30.24,30.19,30.10,10,4,0,10,4,14,0.00,3,Fog,148
2011-11-6,63,56,49,44,40,35,71,57,43,30.25,30.20,30.12,10,10,9,20,10,29,0.00,5,,169
2011-11-7,73,66,59,54,51,46,72,63,53,30.25,30.18,30.11,10,10,10,14,7,20,0.00,3,,178
2011-11-8,75,65,55,56,52,48,77,62,46,30.10,29.99,29.84,10,10,5,21,10,33,0.09,4,Rain,170
2011-11-9,66,51,35,61,45,32,90,70,50,30.20,29.98,29.76,10,9,2,30,13,37,0.65,5,Rain,244
2011-11-10,51,40,29,32,24,15,89,59,29,30.22,30.19,30.16,10,10,10,21,8,28,0.00,0,,273
2011-11-11,63,44,25,32,25,19,81,55,29,30.19,30.07,29.97,10,10,10,21,7,28,0.00,0,,206
2011-11-12,62,54,46,43,38,31,61,54,46,30.06,29.97,29.85,10,10,10,21,11,32,0.00,1,,195
2011-11-13,72,66,59,56,52,43,67,60,53,29.84,29.77,29.72,10,10,10,26,14,37,0.00,7,,204
2011-11-14,76,68,59,61,59,55,90,75,60,29.86,29.76,29.68,10,8,2,28,13,41,1.00,6,Rain,215
2011-11-15,59,57,54,55,54,52,93,90,86,29.90,29.84,29.77,10,7,1,18,6,24,1.11,8,Rain,114
2011-11-16,57,49,40,55,42,19,93,64,35,30.23,29.94,29.79,10,7,2,24,12,32,0.84,6,Rain-Thunderstorm,7
2011-11-17,50,39,27,24,20,11,75,49,23,30.37,30.33,30.23,10,10,10,18,5,23,0.00,2,,318
2011-11-18,55,44,32,28,19,13,56,38,19,30.37,30.24,30.10,10,10,10,17,9,23,0.00,0,,172
2011-11-19,66,56,46,51,42,30,65,56,46,30.10,30.04,29.96,10,10,10,20,11,31,0.00,6,,182
2011-11-20,63,55,47,59,54,45,100,84,67,30.18,30.12,30.08,10,4,0,12,6,20,0.82,8,Fog-Rain-Thunderstorm,216
2011-11-21,55,52,48,54,51,46,96,93,89,30.20,30.11,30.01,10,3,0,23,3,36,0.62,8,Fog-Rain-Thunderstorm,5
2011-11-22,66,57,48,61,53,44,100,89,78,30.07,29.90,29.78,10,6,1,26,11,32,1.86,8,Rain-Thunderstorm,326
2011-11-23,49,47,45,44,41,41,89,85,80,30.34,30.26,30.09,10,8,6,15,5,20,0.00,8,,326
2011-11-24,48,42,35,43,40,34,92,86,80,30.40,30.33,30.26,10,4,0,9,3,14,0.00,7,Fog,201
2011-11-25,63,48,33,44,37,30,92,69,46,30.25,30.16,30.06,10,7,0,20,7,28,0.00,0,Fog,188
2011-11-26,70,62,53,58,52,39,93,73,53,30.07,29.93,29.83,10,8,2,20,10,25,0.71,7,Rain,194
2011-11-27,58,48,38,55,39,35,93,88,83,30.08,29.97,29.85,10,7,3,20,11,25,0.82,8,Rain,339
2011-11-28,40,38,36,37,35,34,92,86,79,30.02,29.81,29.65,10,5,2,22,14,31,0.72,8,Rain-Snow,350
2011-11-29,41,37,33,36,31,26,92,78,64,30.09,29.85,29.64,10,6,1,20,10,25,0.28,8,Rain-Snow,320
2011-11-30,43,34,24,26,24,21,85,64,43,30.25,30.18,30.08,10,10,10,9,3,13,0.00,0,,277